Location: Barrio de Buenos Aires
(28.4500°N, 16.2667°W)
Time: 15:19:17
(UTC+00:00)

Cosmos 1000 Rocket - Pass Details

Date: 24 January 2020
Orbit: 954 x 991 km, 82.9° (Epoch: 26 February)

Event Time Altitude Azimuth Distance (km) Brightness Sun altitude
Rises 20:13:37 0° 0° (N) 3,655 7.4 -21.0°
Reaches altitude 10° 20:16:11 10° 5° (N) 2,711 6.7 -21.6°
Maximum altitude 20:22:16 55° 83° (E) 1,158 4.5 -22.9°
Drops below altitude 10° 20:28:21 10° 160° (SSE) 2,724 6.7 -24.2°
Sets 20:30:56 0° 164° (SSE) 3,674 7.5 -24.8°
